Date String (YYYY-MM-DD hh:mm:ss) UTC,Instrument flags,Ambient pressure (hPa),Sample flow (lpm),Bypass flow (lpm),Sample temperature (°C),Ambient temperature (°C),ASC tube jacket temperature (°C),LED temperature (°C),Box temperature (°C),Sample RH (%),Span deviation,Mass concentration (μg/m³),Mass concentration (μg/m³),Mass concentration (μg/m³)
DateTimeUTC,F1_M11,P_M11,Q1_M11,Q2_M11,T1_M11,T2_M11,T3_M11,T4_M11,T5_M11,U1_M11,ZSPAN_M11,X2_M11,X0_M11,X1_M11
2023-02-22 02:00:00,,0804.1,5.00,0.00,24.3,22.6,00.0,33.1,26.1,14.1,0000.0,0002.85,0010.38,0001.54
2023-02-22 02:01:00,,0804.1,5.00,0.00,24.3,22.5,00.0,33.1,26.1,14.2,0000.0,0002.92,0011.82,0001.53
2023-02-22 02:02:00,,0804.1,5.00,0.00,24.3,22.5,00.0,33.1,26.0,14.2,0000.0,0002.91,0011.63,0001.52
2023-02-22 02:03:00,,0804.1,4.99,0.00,24.3,22.5,00.0,33.1,26.0,14.3,0000.0,0002.93,0010.51,0001.52
2023-02-22 02:04:00,,0804.2,5.00,0.00,24.2,22.5,00.0,33.1,26.0,14.3,0000.0,0002.89,0010.52,0001.51
2023-02-22 02:05:00,,0804.1,5.00,0.00,24.2,22.5,00.0,33.1,26.0,14.3,0000.0,0002.90,0010.40,0001.52
2023-02-22 02:06:00,,0804.2,5.00,0.00,24.2,22.4,00.0,33.1,26.0,14.4,0000.0,0002.83,0011.87,0001.52
2023-02-22 02:07:00,,0804.2,5.00,0.00,24.2,22.4,00.0,33.1,26.0,14.4,0000.0,0002.79,0012.80,0001.52
2023-02-22 02:08:00,,0804.2,5.00,0.00,24.2,22.4,00.0,33.1,26.0,14.4,0000.0,0002.81,0012.85,0001.53
2023-02-22 02:09:00,,0804.2,5.01,0.00,24.2,22.4,00.0,33.0,26.0,14.5,0000.0,0002.78,0012.43,0001.54
2023-02-22 02:10:00,,0804.3,5.01,0.00,24.2,22.4,00.0,33.0,25.9,14.5,0000.0,0002.80,0011.90,0001.56
2023-02-22 02:11:00,,0804.2,5.00,0.00,24.2,22.4,00.0,33.0,25.9,14.5,0000.0,0002.75,0012.29,0001.58
2023-02-22 02:12:00,,0804.2,4.99,0.00,24.2,22.4,00.0,33.0,25.9,14.6,0000.0,0002.66,0011.05,0001.59
2023-02-22 02:13:00,,0804.2,5.01,0.00,24.1,22.3,00.0,33.0,25.9,14.7,0000.0,0002.67,0010.87,0001.60
2023-02-22 02:14:00,,0804.3,5.01,0.00,24.1,22.3,00.0,33.0,25.9,14.6,0000.0,0002.63,0011.64,0001.61
2023-02-22 02:15:00,,0804.3,4.99,0.00,24.1,22.2,00.0,33.0,25.7,14.6,0000.0,0002.59,0011.53,0001.61
2023-02-22 02:16:00,,0804.3,4.99,0.00,24.1,22.1,00.0,33.0,25.7,14.8,0000.0,0002.59,0012.32,0001.61
2023-02-22 02:17:00,,0804.3,5.00,0.00,24.1,22.1,00.0,32.9,25.7,14.8,0000.0,0002.67,0011.30,0001.62
2023-02-22 02:18:00,,0804.2,5.00,0.00,24.0,22.0,00.0,32.9,25.6,14.8,0000.0,0002.69,0010.54,0001.60
2023-02-22 02:19:00,,0804.2,5.00,0.00,24.0,21.9,00.0,32.9,25.6,14.8,0000.0,0002.66,0011.13,0001.60
2023-02-22 02:20:00,,0804.2,5.00,0.00,24.0,21.9,00.0,32.9,25.6,14.8,0000.0,0002.69,0011.68,0001.60
2023-02-22 02:21:00,,0804.3,5.00,0.00,23.9,21.9,00.0,32.9,25.5,14.8,0000.0,0002.63,0011.95,0001.59
2023-02-22 02:22:00,,0804.2,5.00,0.00,23.9,21.8,00.0,32.9,25.5,14.8,0000.0,0002.71,0011.85,0001.59
2023-02-22 02:23:00,,0804.2,5.00,0.00,23.9,21.8,00.0,32.8,25.5,14.8,0000.0,0002.76,0011.60,0001.60
2023-02-22 02:24:00,,0804.3,5.00,0.00,23.9,21.8,00.0,32.8,25.5,14.8,0000.0,0002.77,0012.20,0001.60
2023-02-22 02:25:00,,0804.3,5.00,0.00,23.9,21.8,00.0,32.8,25.5,14.9,0000.0,0002.83,0011.93,0001.61
2023-02-22 02:26:00,,0804.4,5.00,0.00,23.8,21.7,00.0,32.8,25.5,14.9,0000.0,0002.89,0012.85,0001.62
2023-02-22 02:27:00,,0804.5,5.00,0.00,23.8,21.7,00.0,32.7,25.4,15.0,0000.0,0002.92,0011.98,0001.61
2023-02-22 02:28:00,,0804.6,4.99,0.00,23.8,21.6,00.0,32.7,25.4,15.1,0000.0,0002.91,0011.03,0001.60
2023-02-22 02:29:00,,0804.6,5.00,0.00,23.7,21.5,00.0,32.7,25.3,15.2,0000.0,0002.91,0010.92,0001.60
2023-02-22 02:30:00,,0804.5,4.99,0.00,23.7,21.4,00.0,32.7,25.2,15.4,0000.0,0002.92,0010.80,0001.59
2023-02-22 02:31:00,,0804.5,5.00,0.00,23.6,21.4,00.0,32.6,25.2,15.5,0000.0,0002.90,0011.78,0001.57
2023-02-22 02:32:00,,0804.5,4.99,0.00,23.6,21.3,00.0,32.6,25.1,15.5,0000.0,0002.95,0011.59,0001.57
2023-02-22 02:33:00,,0804.5,5.00,0.00,23.6,21.2,00.0,32.6,25.1,15.5,0000.0,0002.92,0011.83,0001.56
2023-02-22 02:34:00,,0804.5,5.01,0.00,23.5,21.1,00.0,32.5,25.0,15.6,0000.0,0002.95,0012.42,0001.56
2023-02-22 02:35:00,,0804.6,5.00,0.00,23.5,21.1,00.0,32.5,25.0,15.7,0000.0,0002.99,0012.23,0001.55
2023-02-22 02:36:00,,0804.6,5.00,0.00,23.4,21.0,00.0,32.4,24.9,15.7,0000.0,0002.94,0011.92,0001.54
2023-02-22 02:37:00,,0804.6,4.99,0.00,23.4,21.0,00.0,32.4,24.9,15.7,0000.0,0002.88,0011.79,0001.52
2023-02-22 02:38:00,,0804.5,5.00,0.00,23.3,20.9,00.0,32.4,24.8,15.7,0000.0,0002.88,0011.86,0001.51
2023-02-22 02:39:00,,0804.5,4.99,0.00,23.3,20.9,00.0,32.3,24.8,15.7,0000.0,0002.87,0011.94,0001.53
2023-02-22 02:40:00,,0804.6,5.01,0.00,23.3,20.9,00.0,32.3,24.8,15.7,0000.0,0002.84,0012.09,0001.54
2023-02-22 02:41:00,,0804.6,5.01,0.00,23.2,20.9,00.0,32.3,24.8,15.8,0000.0,0002.84,0011.75,0001.55
2023-02-22 02:42:00,,0804.6,5.01,0.00,23.2,20.9,00.0,32.2,24.7,15.7,0000.0,0002.82,0010.04,0001.55
2023-02-22 02:43:00,,0804.6,5.00,0.00,23.1,20.8,00.0,32.2,24.7,15.5,0000.0,0002.75,0010.03,0001.54
2023-02-22 02:44:00,,0804.7,5.01,0.00,23.1,20.8,00.0,32.2,24.7,15.6,0000.0,0002.77,0010.26,0001.53
2023-02-22 02:45:00,,0804.7,5.00,0.00,23.1,20.8,00.0,32.1,24.7,15.6,0000.0,0002.71,0009.43,0001.52
2023-02-22 02:46:00,,0804.7,4.99,0.00,23.0,20.8,00.0,32.1,24.6,15.7,0000.0,0002.61,0009.02,0001.50
2023-02-22 02:47:00,,0804.7,4.99,0.00,23.0,20.7,00.0,32.1,24.6,15.8,0000.0,0002.63,0008.71,0001.49
2023-02-22 02:48:00,,0804.7,5.00,0.00,23.0,20.7,00.0,32.0,24.6,15.8,0000.0,0002.60,0008.24,0001.48
2023-02-22 02:49:00,,0804.7,5.01,0.00,23.0,20.7,00.0,32.0,24.5,15.8,0000.0,0002.55,0007.97,0001.47
2023-02-22 02:50:00,,0804.8,5.00,0.00,22.9,20.8,00.0,32.0,24.5,15.8,0000.0,0002.54,0007.84,0001.46
2023-02-22 02:51:00,,0804.8,5.00,0.00,22.9,20.8,00.0,32.0,24.5,15.8,0000.0,0002.54,0007.69,0001.44
2023-02-22 02:52:00,,0804.8,5.00,0.00,22.9,20.8,00.0,31.9,24.6,15.9,0000.0,0002.47,0008.33,0001.42
2023-02-22 02:53:00,,0804.7,4.99,0.00,22.9,20.9,00.0,31.9,24.5,15.8,0000.0,0002.46,0008.65,0001.41
2023-02-22 02:54:00,,0804.7,5.00,0.00,22.9,20.8,00.0,31.9,24.5,15.8,0000.0,0002.50,0009.68,0001.39
2023-02-22 02:55:00,,0804.8,5.00,0.00,22.9,20.8,00.0,31.9,24.5,15.7,0000.0,0002.43,0009.71,0001.37
2023-02-22 02:56:00,,0804.8,5.00,0.00,22.9,20.9,00.0,31.9,24.4,15.8,0000.0,0002.45,0009.55,0001.35
2023-02-22 02:57:00,,0804.8,5.00,0.00,22.8,20.9,00.0,31.8,24.5,15.9,0000.0,0002.47,0009.60,0001.34
2023-02-22 02:58:00,,0804.8,5.00,0.00,22.8,20.9,00.0,31.8,24.5,15.9,0000.0,0002.37,0009.49,0001.33
2023-02-22 02:59:00,,0804.8,5.00,0.00,22.9,21.0,00.0,31.8,24.6,15.9,0000.0,0002.32,0009.00,0001.32
